Home   Weather   Shawinigan   Past weeks

Flag for Canada Past Weather in Shawinigan, Quebec, Canada — Yesterday and Last 2 Weeks

Now
33 °F

Chilly.


Feels Like: 33 °F
Forecast: 28 / 33 °F
Wind: 1 mph from Southwest

Location: Shawinigan CS

Current Time: Jan 20, 2017 at 11:31:25 am

Latest Report: Jan 20, 2017 at 11:00 am


Visibility: N/A

Pressure: 29.97 "Hg

Humidity: 83%

Dew Point: 28 °F

Location of ShawiniganLocation

Past Weather in Shawinigan — Graph

°F

Shawinigan Temperature Yesterday

Maximum temperature yesterday: 36 °F (at 4:00 pm)
Minimum temperature yesterday: 23 °F (at 12:00 am)
Average temperature yesterday: 28 °F

High & Low Weather Summary for the Past Weeks

 TemperatureHumidityPressure
High40 °F (Jan 11, 2:00 pm)100% (Jan 11, 2:00 am)30.76 "Hg (Jan 11, 2:00 am)
Low-18 °F (Jan 9, 6:00 am)40% (Jan 15, 3:00 pm)29.58 "Hg (Jan 11, 6:00 am)
Average14 °F74%30.17 "Hg
* Reported Jan 5 10:00 am — Jan 20 10:00 am, Shawinigan, Weather by CustomWeather, © 2017

Note: Actual official high and low records may vary slightly from our data, if they occured in-between our weather recording intervals... More about our weather records

Advertising

Shawinigan Weather History for the Previous 24 Hours

Scroll right to see more
 ConditionsComfort  
Time TempWeatherWind HumidityBarometerVisibility
10:00 am
Fri, Jan 20
32 °FChilly.1 mph85%29.98 "HgN/A
9:00 am31 °FChilly.1 mph88%29.98 "HgN/A
8:00 am30 °FChilly.2 mph98%29.98 "HgN/A
7:00 am29 °FChilly.1 mph99%29.99 "HgN/A
6:00 am30 °FChilly.1 mph98%29.99 "HgN/A
5:00 am30 °FChilly.No wind96%29.98 "HgN/A
4:00 am30 °FChilly.No wind90%29.97 "HgN/A
3:00 am30 °FChilly.1 mph90%29.96 "HgN/A
2:00 am30 °FChilly.No wind96%29.98 "HgN/A
1:00 am31 °FChilly.3 mph89%29.99 "HgN/A
12:00 am31 °FChilly.2 mph87%30.02 "HgN/A
11:00 pm
Thu, Jan 19
32 °FChilly.3 mph85%30.04 "HgN/A
10:00 pm31 °FChilly.3 mph87%30.03 "HgN/A
9:00 pm29 °FChilly.No wind99%30.01 "HgN/A
8:00 pm29 °FChilly.2 mph95%30.00 "HgN/A
7:00 pm29 °FChilly.2 mph94%29.99 "HgN/A
6:00 pm28 °FChilly.No wind91%29.98 "HgN/A
5:00 pm33 °FChilly.3 mph86%29.96 "HgN/A
4:00 pm36 °FChilly.2 mph81%29.94 "HgN/A
3:00 pm35 °FChilly.2 mph85%29.92 "HgN/A
2:00 pm33 °FChilly.3 mph91%29.92 "HgN/A
1:00 pm32 °FChilly.2 mph87%29.93 "HgN/A
12:00 pm29 °FChilly.1 mph87%29.94 "HgN/A
11:00 am28 °FChilly.2 mph89%29.96 "HgN/A
Weather by CustomWeather, © 2017

See weather overviewHow to use our weather pages